This is the latest recevied weather packets stored in our database for station/object F6BIJ-13. If no packets are shown the sender has not sent any weather packets the latest 10 day(s).
| Time | Temp. | Humidity | Pressure | Rain* | Wind** | Luminosity | Snow |
|---|---|---|---|---|---|---|---|
| 1777587877 | 13.33° C | 85% | 1022.4 hPa | 0 mm | - | - | - |
| 1777587517 | 13.33° C | 85% | 1022.2 hPa | 0 mm | - | - | - |
| 1777587157 | 13.33° C | 85% | 1022.3 hPa | 0 mm | - | - | - |
| 1777586797 | 13.33° C | 84% | 1022.3 hPa | 0 mm | - | - | - |
| 1777586437 | 13.33° C | 84% | 1022.3 hPa | 0 mm | - | - | - |
| 1777586077 | 13.89° C | 83% | 1022.3 hPa | 0 mm | - | - | - |
| 1777585717 | 13.89° C | 83% | 1022.2 hPa | 0 mm | - | - | - |
| 1777585357 | 13.89° C | 82% | 1022.2 hPa | 0 mm | - | - | - |
| 1777584997 | 14.44° C | 80% | 1022.2 hPa | 0 mm | - | - | - |
| 1777584637 | 14.44° C | 79% | 1022.1 hPa | 0 mm | - | - | - |
| 1777584277 | 15° C | 77% | 1022 hPa | 0 mm | - | - | - |
| 1777583918 | 15° C | 76% | 1021.9 hPa | 0 mm | - | - | - |
| 1777583557 | 16.11° C | 76% | 1021.8 hPa | 0 mm | - | - | - |
| 1777583197 | 16.11° C | 74% | 1021.9 hPa | 0 mm | - | - | - |
| 1777582837 | 15.56° C | 72% | 1021.9 hPa | 0 mm | - | - | - |
| 1777582477 | 15.56° C | 71% | 1021.9 hPa | 0 mm | - | - | - |
| 1777582117 | 16.67° C | 71% | 1021.8 hPa | 0 mm | - | - | - |
| 1777581757 | 16.67° C | 69% | 1021.9 hPa | 0 mm | - | - | - |
| 1777581398 | 16.11° C | 67% | 1021.8 hPa | 0 mm | - | - | - |
| 1777581398 | 16.11° C | 67% | 1021.8 hPa | 0 mm | - | - | - |
| 1777581037 | 16.67° C | 68% | 1021.7 hPa | 0 mm | - | - | - |
| 1777580677 | 16.11° C | 68% | 1021.7 hPa | 0 mm | - | - | - |
| 1777580317 | 16.11° C | 67% | 1021.5 hPa | 0 mm | - | - | - |
| 1777579957 | 17.22° C | 66% | 1021.5 hPa | 0 mm | - | - | - |
| 1777579597 | 16.67° C | 65% | 1021.3 hPa | 0 mm | - | - | - |
* Rain latest 24 hours (hover to see other rain measurements)
** Current wind speed in m/s (hover to see current wind gust speed)